Home   Weather   Mosbach   Past weeks

Flag for Germany Past Weather in Mosbach, Baden-Württemberg, Germany — Yesterday and Last 2 Weeks

Now
25 °F

Light snow. Overcast.


Feels Like: 15 °F
Forecast: 20 / 27 °F
Wind: 10 mph from Northeast

Location: Niederstetten

Current Time: Jan 17, 2017 at 10:46:02 pm

Latest Report: Jan 17, 2017 at 9:20 pm


Visibility: N/A

Pressure: 30.51 "Hg

Humidity: 80%

Dew Point: 19 °F

Location of MosbachLocation

Past Weather in Mosbach — Graph

°F

Mosbach Temperature Yesterday

Maximum temperature yesterday: 27 °F (at 2:20 am)
Minimum temperature yesterday: 16 °F (at 9:20 am)
Average temperature yesterday: 23 °F

High & Low Weather Summary for the Past Weeks

 TemperatureHumidityPressure
High39 °F (Jan 13, 1:20 am)100% (Jan 3, 12:20 am)30.66 "Hg (Jan 3, 12:20 am)
Low7 °F (Jan 6, 5:20 am)54% (Jan 7, 1:20 pm)29.24 "Hg (Jan 13, 1:20 am)
Average27 °F87%30.05 "Hg
* Reported Jan 2 9:20 pm — Jan 17 9:20 pm, Mosbach, Weather by CustomWeather, © 2017

Note: Actual official high and low records may vary slightly from our data, if they occured in-between our weather recording intervals... More about our weather records

Advertising

Mosbach Weather History for the Previous 24 Hours

Scroll right to see more
 ConditionsComfort  
Time TempWeatherWind HumidityBarometerVisibility
9:20 pm
Tue, Jan 17
25 °FLight snow. Overcast.10 mph80%30.51 "HgN/A
8:20 pm25 °FPassing clouds.10 mph74%30.51 "HgN/A
7:20 pm23 °FPassing clouds.9 mph80%30.48 "HgN/A
6:20 pm25 °FPassing clouds.9 mph74%30.48 "HgN/A
5:20 pm23 °FPassing clouds.8 mph74%30.48 "HgN/A
5:00 pm23 °FPassing clouds.9 mph80%30.45 "HgN/A
4:20 pm23 °FScattered clouds.9 mph80%30.45 "HgN/A
3:20 pm25 °FPartly sunny.10 mph80%30.45 "HgN/A
2:20 pm25 °FPartly sunny.15 mph74%30.45 "HgN/A
1:32 pm25 °FSnow flurries. Scattered clouds.13 mph74%30.45 "HgN/A
12:20 pm25 °FLight snow. Scattered clouds.12 mph74%30.45 "HgN/A
11:20 am23 °FPassing clouds.9 mph80%30.45 "HgN/A
10:20 am21 °FPassing clouds.9 mph86%30.45 "HgN/A
9:20 am21 °FPassing clouds.7 mph86%30.42 "HgN/A
8:20 am18 °FScattered clouds.7 mph93%30.42 "HgN/A
7:49 am19 °FPassing clouds.6 mph93%30.42 "HgN/A
7:20 am21 °FPassing clouds.6 mph93%30.39 "HgN/A
6:20 am21 °FLight snow. Passing clouds.7 mph93%30.39 "HgN/A
5:20 am19 °FPassing clouds.6 mph93%30.36 "HgN/A
4:20 am18 °FPassing clouds.6 mph93%30.36 "HgN/A
3:20 am19 °FPassing clouds.5 mph86%30.36 "HgN/A
2:20 am21 °FLight snow. Partly cloudy.7 mph86%30.36 "HgN/A
1:20 am19 °FLight snow. Overcast.9 mph86%30.33 "HgN/A
12:20 am16 °FPassing clouds.6 mph93%30.33 "HgN/A
11:20 pm
Mon, Jan 16
19 °FPassing clouds.6 mph86%30.30 "HgN/A
10:20 pm21 °FPassing clouds.6 mph86%30.30 "HgN/A
Weather by CustomWeather, © 2017

See weather overviewHow to use our weather pages